EW5657 Weather Reports


Display with metric or nautical units.
time (UTC)temp
F
wind
direction
speed
MPH
gust
MPH
rain 1hr
in
rain 24hr
in
rain mn
in
humidity
%
barometer
mb
20260905041624 67 289 7.0 22.0 0.00 0.22 0.20 47 1003.9
20260905041618 67 295 6.0 17.0 0.00 0.22 0.20 48 1003.8
20260905040626 67 283 5.0 20.0 0.00 0.22 0.20 48 1003.8
20260905040620 67 247 7.0 22.0 0.00 0.22 0.20 46 1003.7
20260905035625 67 246 8.0 27.0 0.00 0.22 0.20 49 1003.9
20260905035620 67 277 5.0 22.0 0.00 0.22 0.20 50 1003.8
20260905035246 67 333 7.0 27.0 0.00 0.22 0.20 49 1003.9
20260905034120 66 333 6.0 24.0 0.00 0.22 0.20 52 1003.8
20260905033616 66 280 5.0 17.0 0.00 0.22 0.20 59 1004.0
20260905033118 65 261 4.0 16.0 0.00 0.22 0.20 60 1004.1
20260905032617 66 306 3.0 12.0 0.00 0.22 0.20 61 1004.1
20260905032117 66 273 3.0 17.0 0.00 0.22 0.20 62 1004.1
20260905031617 65 322 3.0 17.0 0.00 0.22 0.20 60 1004.2
20260905031117 65 274 3.0 11.0 0.00 0.22 0.20 62 1004.2
20260905030617 65 214 2.0 11.0 0.00 0.22 0.20 65 1004.3
20260905030118 64 342 2.0 10.0 0.00 0.22 0.20 65 1004.5
20260905025624 63 4 2.0 9.0 0.00 0.22 0.20 66 1004.5
20260905025618 64 243 3.0 9.0 0.00 0.22 0.20 65 1004.5
20260905024615 62 296 3.0 11.0 0.00 0.22 0.20 66 1004.6
20260905024114 62 309 3.0 12.0 0.00 0.22 0.20 66 1004.5
20260905023625 61 280 2.0 10.0 0.00 0.22 0.20 66 1004.6
20260905023615 61 204 3.0 12.0 0.00 0.22 0.20 65 1004.7
20260905022614 61 281 3.0 20.0 0.00 0.22 0.20 63 1004.5
20260905022114 62 254 5.0 20.0 0.00 0.22 0.20 61 1004.8
20260905021611 64 237 6.0 23.0 0.00 0.22 0.20 55 1004.9
20260905021112 66 313 8.0 23.0 0.00 0.22 0.20 54 1004.6
20260905020610 66 289 11.0 28.0 0.00 0.22 0.20 52 1004.2
20260905020112 66 281 13.0 28.0 0.00 0.22 0.20 52 1004.3
20260905015610 67 287 13.0 27.0 0.00 0.22 0.20 54 1004.1
20260905015116 66 320 12.0 28.0 0.00 0.22 0.20 52 1004.4
20260905015110 67 311 13.0 27.0 0.00 0.22 0.20 52 1004.3
20260905014737 67 324 12.0 29.0 0.00 0.22 0.20 56 1004.4
20260905013616 66 304 11.0 24.0 0.00 0.22 0.20 56 1004.5
20260905013608 66 343 13.0 29.0 0.00 0.22 0.20 55 1004.3
20260905013109 66 291 13.0 24.0 0.00 0.22 0.20 55 1004.3
20260905012109 66 310 12.0 24.0 0.00 0.22 0.20 56 1004.5
20260905011616 65 313 11.0 23.0 0.00 0.22 0.20 57 1004.5
20260905011610 65 301 13.0 24.0 0.00 0.22 0.20 56 1004.6
20260905010111 65 299 8.0 16.0 0.00 0.22 0.20 65 1004.7
20260905005610 65 304 9.0 16.0 0.00 0.22 0.20 66 1004.5
20260905005110 64 297 9.0 17.0 0.00 0.22 0.20 67 1004.6
20260905004609 64 4 8.0 17.0 0.00 0.22 0.20 68 1004.6
20260905004109 64 333 7.0 16.0 0.00 0.22 0.20 70 1004.7
20260905003609 64 314 8.0 18.0 0.00 0.22 0.20 71 1004.7
20260905003108 63 359 7.0 18.0 0.00 0.22 0.20 73 1004.8
20260905002608 63 328 6.0 12.0 0.00 0.22 0.20 76 1004.8
20260905002108 62 349 6.0 19.0 0.00 0.22 0.20 77 1004.8
20260905001610 62 353 6.0 19.0 0.00 0.22 0.20 78 1004.8
20260905001108 62 337 5.0 14.0 0.00 0.22 0.20 79 1004.8
20260905000609 61 324 5.0 11.0 0.00 0.22 0.20 79 1004.8
20260905000108 61 300 5.0 11.0 0.00 0.22 0.20 80 1004.7
20260904235608 61 354 7.0 15.0 0.00 0.22 0.20 80 1004.8
20260904235114 61 356 7.0 14.0 0.00 0.22 0.20 81 1004.9
20260904235108 61 333 7.0 15.0 0.00 0.22 0.20 80 1004.9
20260904234108 60 4 7.0 15.0 0.00 0.22 0.20 81 1004.9
20260904233608 60 6 6.0 15.0 0.00 0.22 0.20 81 1005.0
20260904233109 60 9 5.0 15.0 0.00 0.22 0.20 82 1005.0
20260904232609 60 352 5.0 14.0 0.00 0.22 0.20 82 1004.9
20260904232114 60 289 6.0 16.0 0.00 0.22 0.20 83 1005.0
20260904232108 60 332 5.0 12.0 0.00 0.22 0.20 83 1005.0
20260904231107 60 341 6.0 16.0 0.00 0.22 0.20 83 1005.1
20260904230611 59 6 5.0 14.0 0.00 0.22 0.20 83 1005.1
20260904230116 59 6 6.0 16.0 0.00 0.22 0.20 84 1005.0
20260904230109 59 24 5.0 14.0 0.00 0.22 0.20 83 1005.1
20260904225108 59 345 7.0 16.0 0.00 0.22 0.20 84 1005.1
20260904224607 59 352 6.0 15.0 0.00 0.22 0.20 84 1005.0
20260904224111 59 343 7.0 16.0 0.00 0.22 0.20 85 1005.0
20260904224105 59 358 7.0 15.0 0.00 0.22 0.20 84 1005.1
20260904223104 59 8 7.0 16.0 0.01 0.22 0.20 85 1004.8
20260904222611 58 349 6.0 15.0 0.01 0.22 0.20 86 1005.2
20260904222605 58 353 6.0 15.0 0.01 0.22 0.20 86 1005.2
20260904221604 58 330 6.0 14.0 0.01 0.22 0.20 86 1005.2
20260904221102 58 0 6.0 13.0 0.01 0.22 0.20 86 1005.4
20260904220559 58 21 6.0 13.0 0.02 0.22 0.20 87 1005.3
20260904220059 58 312 6.0 13.0 0.02 0.22 0.20 87 1005.4
20260904215559 58 40 6.0 15.0 0.02 0.22 0.20 88 1005.3
20260904215058 58 4 5.0 15.0 0.02 0.22 0.20 88 1005.4
20260904214559 57 26 4.0 10.0 0.02 0.22 0.20 88 1005.6
20260904214059 57 12 5.0 12.0 0.02 0.22 0.20 88 1005.4
20260904213557 57 333 5.0 12.0 0.02 0.22 0.20 88 1005.4
20260904213055 57 335 6.0 15.0 0.02 0.21 0.19 88 1005.3
20260904212603 57 29 8.0 24.0 0.04 0.21 0.19 88 1004.8
20260904212557 57 27 8.0 24.0 0.03 0.21 0.19 88 1004.8
20260904211556 57 352 6.0 16.0 0.04 0.21 0.19 87 1005.4
20260904211055 58 351 7.0 13.0 0.04 0.21 0.19 87 1005.2
20260904210556 58 9 8.0 16.0 0.03 0.20 0.18 87 1005.5
20260904210056 58 335 8.0 16.0 0.03 0.20 0.18 87 1005.8
20260904205559 58 337 7.0 15.0 0.02 0.20 0.18 87 1006.2
20260904205114 58 330 8.0 20.0 0.02 0.20 0.17 86 1006.5
20260904205105 58 341 8.0 20.0 0.02 0.20 0.17 87 1006.3
20260904204056 58 12 7.0 17.0 0.02 0.20 0.17 86 1006.5
20260904203557 58 2 8.0 18.0 0.02 0.20 0.17 85 1006.6
20260904203055 58 340 9.0 18.0 0.02 0.19 0.17 84 1006.9
20260904202554 59 1 9.0 18.0 0.01 0.18 0.16 83 1006.9
20260904202056 59 348 8.0 17.0 0.00 0.17 0.15 83 1006.9
20260904201554 59 320 9.0 18.0 0.00 0.17 0.15 83 1006.8
20260904201053 59 288 9.0 20.0 0.00 0.17 0.15 83 1006.7
20260904200555 59 2 9.0 20.0 0.00 0.17 0.15 84 1006.7
20260904200051 59 358 9.0 16.0 0.00 0.17 0.15 84 1006.7
20260904195553 59 316 8.0 17.0 0.00 0.17 0.15 84 1006.7
20260904195052 59 337 8.0 20.0 0.00 0.17 0.15 84 1006.5
20260904194552 59 334 9.0 20.0 0.00 0.17 0.15 84 1006.4
20260904194053 59 339 8.0 17.0 0.00 0.17 0.15 85 1006.3
20260904193551 58 331 6.0 13.0 0.00 0.17 0.15 85 1006.3
20260904193051 58 10 7.0 14.0 0.01 0.17 0.15 85 1006.4
20260904192553 58 337 6.0 17.0 0.01 0.17 0.15 86 1006.7
20260904192053 58 341 6.0 17.0 0.01 0.17 0.15 86 1006.8
20260904191553 58 8 6.0 15.0 0.02 0.17 0.15 86 1006.8
20260904191050 58 2 7.0 15.0 0.05 0.17 0.15 86 1007.0
20260904190556 58 8 7.0 17.0 0.07 0.17 0.15 86 1007.2
20260904190550 58 337 7.0 15.0 0.07 0.17 0.15 86 1007.2
20260904190217 58 6 7.0 17.0 0.07 0.17 0.15 86 1007.1
20260904185052 58 5 7.0 16.0 0.07 0.17 0.15 87 1007.1
20260904184550 58 20 6.0 17.0 0.07 0.17 0.15 87 1007.2
20260904184052 58 20 7.0 17.0 0.07 0.17 0.15 87 1007.2
20260904183549 58 18 7.0 14.0 0.07 0.17 0.15 87 1007.3
20260904183050 58 359 8.0 19.0 0.06 0.17 0.14 87 1007.4
20260904182551 58 335 8.0 19.0 0.06 0.17 0.14 86 1007.7
20260904182050 58 354 8.0 18.0 0.06 0.17 0.14 86 1007.6
20260904181549 58 353 9.0 18.0 0.05 0.15 0.13 85 1007.9
20260904180552 59 16 8.0 16.0 0.00 0.10 0.08 83 1007.5
20260904180056 59 4 7.0 14.0 0.01 0.10 0.08 83 1006.7
20260904180050 59 35 8.0 15.0 0.01 0.10 0.08 83 1007.1
20260904175051 59 1 8.0 14.0 0.01 0.10 0.08 83 1006.6
20260904174548 59 22 9.0 20.0 0.01 0.10 0.08 84 1006.6
20260904174050 59 349 9.0 20.0 0.01 0.10 0.08 84 1007.0
20260904173548 59 16 9.0 19.0 0.01 0.10 0.08 84 1006.9
20260904173048 59 18 9.0 21.0 0.01 0.10 0.08 85 1006.9
20260904172548 58 6 9.0 21.0 0.01 0.10 0.08 86 1007.2
20260904172048 58 347 7.0 21.0 0.01 0.10 0.08 86 1007.5
20260904171553 58 6 8.0 21.0 0.02 0.10 0.08 86 1007.7
20260904171547 58 337 6.0 21.0 0.02 0.10 0.08 86 1007.6
20260904171215 59 18 11.0 27.0 0.02 0.09 0.08 85 1007.9
20260904170546 59 342 10.0 25.0 0.02 0.10 0.08 85 1008.2
20260904165546 59 7 11.0 27.0 0.02 0.09 0.07 85 1008.0
20260904165046 59 2 9.0 21.0 0.02 0.09 0.07 86 1008.4
20260904164545 59 2 9.0 22.0 0.02 0.09 0.07 86 1008.4
20260904164045 58 328 10.0 22.0 0.02 0.09 0.07 86 1008.5
20260904163547 58 31 9.0 19.0 0.02 0.09 0.07 86 1008.4
20260904163046 58 32 9.0 19.0 0.02 0.09 0.07 86 1008.4
20260904162546 58 22 10.0 22.0 0.02 0.09 0.07 85 1008.5
20260904162050 59 359 10.0 19.0 0.02 0.09 0.06 85 1009.0
20260904162045 58 339 10.0 22.0 0.02 0.09 0.07 85 1008.7
20260904161713 59 22 11.0 19.0 0.02 0.09 0.06 84 1009.0
20260904160545 59 352 11.0 25.0 0.01 0.08 0.06 84 1009.2
20260904160045 59 8 12.0 25.0 0.01 0.08 0.06 84 1009.4
20260904155552 59 339 11.0 21.0 0.01 0.08 0.06 82 1009.7
20260904155546 59 22 11.0 21.0 0.01 0.08 0.06 83 1009.6
20260904154545 60 331 11.0 23.0 0.00 0.07 0.05 82 1009.8
20260904154046 60 6 10.0 23.0 0.00 0.07 0.05 81 1009.8
20260904153545 60 37 10.0 23.0 0.00 0.07 0.05 81 1010.0
20260904153047 60 9 11.0 22.0 0.00 0.07 0.05 81 1010.1
20260904152545 60 6 11.0 23.0 0.00 0.07 0.05 81 1010.1
20260904152046 60 22 11.0 28.0 0.00 0.07 0.05 81 1010.2
20260904151547 60 5 11.0 28.0 0.01 0.07 0.05 81 1010.3
20260904151044 60 351 10.0 22.0 0.01 0.07 0.05 81 1010.4
20260904150545 60 4 9.0 19.0 0.01 0.07 0.05 81 1010.5
20260904150047 60 7 10.0 19.0 0.05 0.07 0.05 81 1010.5
20260904145545 60 327 10.0 19.0 0.05 0.07 0.05 81 1010.4
20260904145043 60 345 11.0 22.0 0.05 0.07 0.05 81 1010.3
20260904144548 59 0 10.0 21.0 0.05 0.07 0.05 82 1010.7
20260904144544 59 356 11.0 22.0 0.05 0.07 0.05 81 1010.5
20260904143540 59 11 9.0 20.0 0.05 0.07 0.05 82 1010.7
20260904143041 59 339 9.0 17.0 0.05 0.07 0.05 83 1010.9
20260904142542 59 13 9.0 18.0 0.05 0.07 0.05 83 1010.9
20260904142043 59 358 9.0 20.0 0.05 0.07 0.05 83 1011.0
20260904141542 59 319 9.0 20.0 0.04 0.06 0.05 83 1011.1
20260904141041 59 4 10.0 29.0 0.04 0.06 0.04 82 1011.0
20260904140542 60 304 11.0 29.0 0.04 0.06 0.04 81 1011.1
20260904140040 60 359 11.0 26.0 0.00 0.02 0.00 78 1011.3
20260904135542 60 6 10.0 20.0 0.00 0.02 0.02 79 1011.4
20260904135040 60 6 9.0 20.0 0.00 0.02 0.02 79 1011.4
20260904134542 60 333 7.0 19.0 0.00 0.02 0.02 79 1011.6
20260904134048 61 355 11.0 28.0 0.00 0.02 0.02 77 1011.5
20260904134041 61 328 10.0 28.0 0.00 0.02 0.02 78 1011.7
20260904133049 61 8 10.0 23.0 0.00 0.02 0.02 77 1011.7
20260904133039 61 4 10.0 24.0 0.00 0.02 0.02 77 1011.6
20260904132540 61 337 11.0 24.0 0.00 0.02 0.02 77 1011.6
20260904131709 61 18 9.0 22.0 0.01 0.02 0.02 78 1011.9
20260904131546 61 347 9.0 20.0 0.01 0.02 0.02 77 1011.9
20260904131540 61 9 9.0 20.0 0.00 0.02 0.02 77 1011.7
20260904130042 61 358 8.0 22.0 0.01 0.02 0.02 78 1011.7
20260904125047 60 4 8.0 18.0 0.02 0.02 0.02 83 1012.1
20260904125041 60 8 9.0 21.0 0.02 0.02 0.02 81 1011.9
20260904124041 59 0 6.0 18.0 0.02 0.02 0.02 85 1012.1
20260904123541 58 357 4.0 15.0 0.02 0.02 0.02 86 1012.1
20260904123041 58 355 3.0 8.0 0.02 0.02 0.02 85 1012.1
20260904122541 58 343 2.0 8.0 0.02 0.02 0.02 84 1012.3
20260904122041 58 14 2.0 6.0 0.02 0.02 0.02 84 1012.4
20260904121542 58 10 3.0 6.0 0.02 0.02 0.02 83 1012.4
20260904121040 58 4 4.0 9.0 0.01 0.02 0.02 82 1012.4
20260904120544 59 31 4.0 9.0 0.01 0.02 0.02 82 1012.3
20260904120536 59 36 3.0 8.0 0.01 0.02 0.02 81 1012.5
20260904120216 59 8 4.0 7.0 0.00 0.01 0.01 78 1013.0
20260904120210 59 19 4.0 7.0 0.01 0.02 0.02 80 1012.9
20260904114536 59 347 4.0 8.0 0.00 0.01 0.01 77 1013.2
20260904114036 60 2 4.0 8.0 0.00 0.01 0.01 76 1013.4
20260904113534 60 20 4.0 8.0 0.00 0.01 0.01 75 1013.5
20260904113034 60 25 4.0 9.0 0.01 0.01 0.01 74 1013.6
20260904112535 60 352 4.0 9.0 0.01 0.01 0.01 75 1013.6
20260904112033 59 8 3.0 6.0 0.01 0.01 0.01 75 1013.6
20260904111533 59 354 3.0 6.0 0.01 0.01 0.01 76 1013.7
20260904111033 59 57 4.0 9.0 0.01 0.01 0.01 76 1013.7
20260904110530 59 6 4.0 9.0 0.01 0.01 0.01 76 1013.8
20260904110036 59 6 4.0 10.0 0.01 0.01 0.01 76 1014.0
20260904110030 59 343 4.0 10.0 0.01 0.01 0.01 76 1013.9
20260904105031 59 2 3.0 10.0 0.01 0.01 0.01 77 1013.9
20260904104530 59 353 4.0 11.0 0.01 0.01 0.01 77 1014.0
20260904104030 59 346 5.0 11.0 0.01 0.01 0.01 76 1014.1
20260904103530 59 11 5.0 10.0 0.01 0.01 0.01 75 1014.0
20260904103031 60 327 6.0 14.0 0.00 0.00 0.00 74 1014.1
20260904102030 60 19 7.0 16.0 0.00 0.00 0.00 72 1014.1
20260904101530 60 342 6.0 16.0 0.00 0.00 0.00 72 1014.0
20260904101030 60 340 6.0 17.0 0.00 0.00 0.00 72 1014.1
20260904100529 60 316 6.0 17.0 0.00 0.00 0.00 71 1014.2
20260904100028 60 17 7.0 14.0 0.00 0.00 0.00 71 1014.1
20260904095535 60 347 6.0 15.0 0.00 0.00 0.00 69 1014.3
20260904095529 60 321 7.0 15.0 0.00 0.00 0.00 70 1014.1
20260904094525 60 335 6.0 15.0 0.00 0.00 0.00 68 1014.4
20260904094027 60 326 6.0 15.0 0.00 0.00 0.00 68 1014.4
20260904093525 60 340 7.0 16.0 0.00 0.00 0.00 67 1014.5
20260904093026 60 339 7.0 16.0 0.00 0.00 0.00 67 1014.4
20260904092527 60 346 7.0 16.0 0.00 0.00 0.00 67 1014.4
20260904092026 60 358 8.0 16.0 0.00 0.00 0.00 67 1014.5
20260904091526 60 339 8.0 17.0 0.00 0.00 0.00 67 1014.5
20260904091028 60 0 7.0 18.0 0.00 0.00 0.00 67 1014.3
20260904090526 60 351 7.0 18.0 0.00 0.00 0.00 67 1014.3
20260904090027 60 355 7.0 17.0 0.00 0.00 0.00 67 1014.1
20260904085530 59 289 6.0 18.0 0.00 0.00 0.00 66 1014.5
20260904085524 59 358 6.0 18.0 0.00 0.00 0.00 67 1014.4
20260904084529 59 341 6.0 15.0 0.00 0.00 0.00 66 1014.3
20260904084523 59 43 6.0 12.0 0.00 0.00 0.00 66 1014.4
20260904083525 59 349 7.0 15.0 0.00 0.00 0.00 66 1014.5
20260904083030 59 345 6.0 14.0 0.00 0.00 0.00 66 1014.6
20260904083024 59 12 7.0 14.0 0.00 0.00 0.00 66 1014.5
20260904082652 59 359 6.0 14.0 0.00 0.00 0.00 66 1014.5
20260904081532 60 16 6.0 15.0 0.00 0.00 0.00 65 1014.6
20260904081525 60 15 6.0 15.0 0.00 0.00 0.00 65 1014.6
20260904080521 60 335 9.0 19.0 0.00 0.00 0.00 64 1014.7
20260904080023 60 0 10.0 19.0 0.00 0.00 0.00 64 1014.7
20260904075520 60 322 9.0 18.0 0.00 0.00 0.00 64 1014.9
20260904075021 60 300 8.0 19.0 0.00 0.00 0.00 64 1014.9
20260904074519 60 347 7.0 19.0 0.00 0.00 0.00 64 1015.0
20260904074027 60 357 6.0 14.0 0.00 0.00 0.00 63 1015.3
20260904074020 60 358 6.0 15.0 0.00 0.00 0.00 63 1015.2
20260904073028 60 324 8.0 19.0 0.00 0.00 0.00 62 1015.2
20260904073021 60 12 8.0 17.0 0.00 0.00 0.00 62 1015.2
20260904072023 60 326 8.0 19.0 0.00 0.00 0.00 62 1015.2
20260904071517 61 22 9.0 19.0 0.00 0.00 0.00 62 1015.1
20260904071019 61 299 9.0 19.0 0.00 0.00 0.00 61 1015.2
20260904070522 61 358 8.0 19.0 0.00 0.00 0.00 61 1015.3
20260904070020 61 344 7.0 14.0 0.00 0.00 0.00 60 1015.3
20260904065519 61 339 7.0 15.0 0.00 0.00 0.00 61 1015.3
20260904065018 61 315 8.0 15.0 0.00 0.00 0.00 60 1015.4
20260904064332 62 345 8.0 21.0 0.00 0.00 0.00 59 1015.5
20260904064310 62 353 8.0 21.0 0.00 0.00 0.00 59 1015.4
20260904063644 62 333 9.0 20.0 0.00 0.00 0.00 59 1015.5
20260904062523 62 348 7.0 13.0 0.00 0.00 0.00 59 1015.7
20260904062517 62 311 8.0 20.0 0.00 0.00 0.00 59 1015.7
20260904061523 62 4 8.0 17.0 0.00 0.00 0.00 58 1016.0
20260904061517 62 306 8.0 16.0 0.00 0.00 0.00 59 1015.9
20260904060517 62 314 7.0 17.0 0.00 0.00 0.00 58 1016.0
20260904060017 62 355 7.0 18.0 0.00 0.00 0.00 58 1016.0
20260904055517 62 351 7.0 18.0 0.00 0.00 0.00 58 1016.1
20260904055017 62 341 7.0 14.0 0.00 0.00 0.00 58 1016.2
20260904054519 62 305 6.0 12.0 0.00 0.00 0.00 58 1016.2
20260904054017 62 345 6.0 15.0 0.00 0.00 0.00 57 1016.3
20260904053517 62 6 7.0 15.0 0.00 0.00 0.00 57 1016.2
20260904053019 62 326 8.0 17.0 0.00 0.00 0.00 57 1016.2
20260904052523 62 333 9.0 18.0 0.00 0.00 0.00 57 1016.5
20260904052517 62 321 9.0 18.0 0.00 0.00 0.00 57 1016.4
20260904051515 63 324 8.0 16.0 0.00 0.00 0.00 57 1016.4
20260904051015 63 330 7.0 16.0 0.00 0.00 0.00 56 1016.5
20260904050516 64 311 6.0 15.0 0.00 0.00 0.00 56 1016.4
20260904050020 64 338 7.0 14.0 0.00 0.00 0.00 55 1016.4
20260904050015 64 13 6.0 14.0 0.00 0.00 0.00 55 1016.3
20260904045643 64 314 7.0 14.0 0.00 0.00 0.00 54 1016.4
20260904044516 64 303 7.0 13.0 0.00 0.00 0.00 53 1016.6
20260904044015 64 329 7.0 18.0 0.00 0.00 0.00 53 1016.4
20260904043517 64 289 7.0 20.0 0.00 0.00 0.00 52 1016.3
20260904043017 64 4 7.0 20.0 0.00 0.00 0.00 52 1016.5